Retour au catalogue

SL-8 DEB

ActifLEO
NORAD 21165·DEBRIS·🇷🇺 Russia

Lancé Feb 12, 1991 depuis Plesetsk Cosmodrome

Loading…

Prochains Passages (prochaines 24 heures)

TLE

FraisSource: Space-Track

Époque: Sep 13, 2026, 19:08 UTC

1 21165U 91009AC  26256.79777164  .00000257  00000-0  27899-2 0  9994
2 21165  74.1597  77.4143 0160295 282.3927  88.2146 12.12153158571812

Suivez SL-8 DEB en temps réel avec AllMySat

Download on the App Store